KB0OJV Weather Reports


time (UTC)temp
C
wind
direction
speed
KPH
gust
KPH
rain 1hr
cm
rain 24hr
cm
rain mn
cm
humidity
%
barometer
mb
20260504050504 7 180 1.6 4.8 0.00 0.00 0.00 66 1002.3
20260504050013 7 182 1.6 4.8 0.00 0.00 0.00 67 1002.4
20260504045503 8 169 3.2 4.8 0.00 0.00 0.00 66 1002.5
20260504045005 8 177 1.6 4.8 0.00 0.00 0.00 64 1002.6
20260504044512 8 173 0.0 3.2 0.00 0.00 0.00 63 1002.7
20260504044003 8 189 0.0 3.2 0.00 0.00 0.00 65 1002.7
20260504043508 8 192 1.6 6.4 0.00 0.00 0.00 65 1002.9
20260504043011 8 202 1.6 6.4 0.00 0.00 0.00 64 1002.9
20260504042506 8 200 3.2 6.4 0.00 0.00 0.00 64 1003.0
20260504042009 8 203 1.6 6.4 0.00 0.00 0.00 63 1003.1
20260504041515 8 193 3.2 4.8 0.00 0.00 0.00 63 1003.2
20260504041003 8 203 1.6 3.2 0.00 0.00 0.00 61 1003.3
20260504040510 9 196 0.0 0.0 0.00 0.00 0.00 61 1003.4
20260504040025 9 196 0.0 1.6 0.00 0.00 0.00 58 1003.5
20260504035509 9 196 0.0 1.6 0.00 0.00 0.00 57 1003.6
20260504035007 9 196 0.0 1.6 0.00 0.00 0.00 1003.7
20260504034510 10 251 0.0 0.0 0.00 0.00 0.00 1003.8
20260504034003 10 251 0.0 0.0 0.00 0.00 0.00 1003.8
20260504033507 10 251 0.0 0.0 0.00 0.00 0.00 57 1003.9
20260504033013 10 251 0.0 0.0 0.00 0.00 0.00 57 1003.9
20260504032506 10 251 0.0 0.0 0.00 0.00 0.00 57 1004.0
20260504032007 10 251 0.0 0.0 0.00 0.00 0.00 57 1004.1
20260504031513 10 251 0.0 0.0 0.00 0.00 0.00 56 1004.2
20260504031006 11 251 0.0 0.0 0.00 0.00 0.00 55 1004.2
20260504030506 11 251 0.0 0.0 0.00 0.00 0.00 1004.2
20260504030009 11 251 0.0 0.0 0.00 0.00 0.00 1004.3
20260504025507 11 251 0.0 0.0 0.00 0.00 0.00 51 1004.3
20260504025014 11 251 0.0 0.0 0.00 0.00 0.00 51 1004.3
20260504024525 12 251 0.0 0.0 0.00 0.00 0.00 51 1004.3
20260504024005 12 251 0.0 0.0 0.00 0.00 0.00 50 1004.3
20260504023502 12 251 0.0 0.0 0.00 0.00 0.00 49 1004.3
20260504023011 12 251 0.0 0.0 0.00 0.00 0.00 48 1004.3
20260504022505 13 251 0.0 0.0 0.00 0.00 0.00 47 1004.3
20260504022007 13 251 0.0 0.0 0.00 0.00 0.00 47 1004.3
20260504021513 13 251 0.0 0.0 0.00 0.00 0.00 45 1004.3
20260504021006 14 251 0.0 0.0 0.00 0.00 0.00 46 1004.4
20260504020507 15 251 0.0 0.0 0.00 0.00 0.00 43 1004.3
20260504020020 15 0.0 0.0 0.00 0.00 0.00 42 1004.3
20260504015507 15 0.0 0.0 0.00 0.00 0.00 42 1004.3
20260504015008 16 0.0 0.0 0.00 0.00 0.00 40 1004.4
20260504014522 16 0.0 0.0 0.00 0.00 0.00 39 1004.4
20260504014009 16 262 4.8 0.0 0.00 0.00 0.00 34 1004.4
20260504013513 16 0.0 0.0 0.00 0.00 0.00 34 1004.5
20260504013034 17 3.2 4.8 0.00 0.00 0.00 39 1004.5
20260504012509 17 243 3.2 4.8 0.00 0.00 0.00 32 1004.4
20260504012003 17 258 1.6 6.4 0.00 0.00 0.00 33 1004.5
20260504011508 17 261 3.2 6.4 0.00 0.00 0.00 31 1004.5
20260504011007 18 269 3.2 6.4 0.00 0.00 0.00 31 1004.5
20260504010506 18 257 4.8 9.7 0.00 0.00 0.00 31 1004.5
20260504010016 18 259 4.8 11.3 0.00 0.00 0.00 31 1004.6
20260504005507 18 249 6.4 16.1 0.00 0.00 0.00 31 1004.6
20260504005009 18 285 9.7 16.1 0.00 0.00 0.00 30 1004.6
20260504004534 18 286 9.7 14.5 0.00 0.00 0.00 29 1004.5
20260504004010 18 269 6.4 12.9 0.00 0.00 0.00 30 1004.5
20260504003509 19 256 6.4 12.9 0.00 0.00 0.00 29 1004.6
20260504003022 19 277 6.4 16.1 0.00 0.00 0.00 30 1004.6
20260504002511 19 266 9.7 17.7 0.00 0.00 0.00 29 1004.7
20260504002006 20 265 9.7 17.7 0.00 0.00 0.00 28 1004.8
20260504001530 20 269 11.3 17.7 0.00 0.00 0.00 28 1004.8
20260504001005 20 260 11.3 19.3 0.00 0.00 0.00 27 1004.8
20260504000504 20 269 14.5 20.9 0.00 0.00 0.00 27 1004.8
20260504000016 20 254 11.3 20.9 0.00 0.00 0.00 26 1004.8
20260503235505 21 266 11.3 19.3 0.00 0.00 0.00 26 1004.7
20260503235005 21 304 12.9 19.3 0.00 0.00 0.00 26 1004.7
20260503234518 21 268 8.0 17.7 0.00 0.00 0.00 24 1004.7
20260503234009 21 288 11.3 19.3 0.00 0.00 0.00 24 1004.8
20260503233509 21 294 12.9 20.9 0.00 0.00 0.00 26 1004.9
20260503233021 21 276 12.9 20.9 0.00 0.00 0.00 25 1004.8
20260503232513 21 272 11.3 24.1 0.00 0.00 0.00 27 1004.9
20260503232011 21 265 11.3 24.1 0.00 0.00 0.00 26 1004.9
20260503231528 21 271 16.1 24.1 0.00 0.00 0.00 27 1005.0
20260503231009 21 290 9.7 25.7 0.00 0.00 0.00 27 1004.9
20260503230511 21 252 17.7 25.7 0.00 0.00 0.00 25 1005.0
20260503230014 21 242 12.9 25.7 0.00 0.00 0.00 27 1005.0
20260503225508 21 288 19.3 25.7 0.00 0.00 0.00 27 1004.9
20260503225006 21 292 12.9 20.9 0.00 0.00 0.00 27 1005.0
20260503224518 21 262 14.5 19.3 0.00 0.00 0.00 25 1005.1
20260503224008 21 273 9.7 19.3 0.00 0.00 0.00 23 1005.1
20260503223508 21 284 11.3 19.3 0.00 0.00 0.00 22 1005.0
20260503223020 21 5 4.8 19.3 0.00 0.00 0.00 24 1005.2
20260503222510 21 333 6.4 24.1 0.00 0.00 0.00 24 1005.2
20260503222010 21 286 12.9 25.7 0.00 0.00 0.00 23 1005.3
20260503221523 22 308 14.5 25.7 0.00 0.00 0.00 24 1005.3
20260503221012 22 302 11.3 19.3 0.00 0.00 0.00 24 1005.2
20260503220510 22 275 6.4 22.5 0.00 0.00 0.00 24 1005.2
20260503220027 22 320 14.5 25.7 0.00 0.00 0.00 29 1005.2
20260503215510 22 271 16.1 25.7 0.00 0.00 0.00 25 1005.2
20260503215006 22 275 11.3 25.7 0.00 0.00 0.00 26 1005.2
20260503214528 22 350 9.7 25.7 0.00 0.00 0.00 25 1005.2
20260503214006 22 352 6.4 19.3 0.00 0.00 0.00 26 1005.2
20260503213506 21 295 14.5 22.5 0.00 0.00 0.00 26 1005.3
20260503213029 21 321 6.4 22.5 0.00 0.00 0.00 26 1005.3
20260503212507 21 306 11.3 24.1 0.00 0.00 0.00 23 1005.3
20260503212013 21 344 12.9 24.1 0.00 0.00 0.00 24 1005.3
20260503211521 21 323 8.0 24.1 0.00 0.00 0.00 26 1005.3
20260503211010 22 271 12.9 24.1 0.00 0.00 0.00 24 1005.3
20260503210509 22 293 16.1 30.6 0.00 0.00 0.00 25 1005.5
20260503210025 21 273 17.7 30.6 0.00 0.00 0.00 25 1005.4
20260503205514 22 290 11.3 30.6 0.00 0.00 0.00 25 1005.3
20260503205012 21 259 17.7 30.6 0.00 0.00 0.00 27 1005.5
20260503204527 21 277 17.7 24.1 0.00 0.00 0.00 27 1005.5
20260503204009 21 284 14.5 29.0 0.00 0.00 0.00 28 1005.5
20260503203510 21 313 11.3 29.0 0.00 0.00 0.00 26 1005.6
20260503203018 21 311 11.3 24.1 0.00 0.00 0.00 26 1005.6
20260503202511 21 342 14.5 22.5 0.00 0.00 0.00 28 1005.6
20260503202011 21 300 12.9 29.0 0.00 0.00 0.00 26 1005.6
20260503201518 21 275 8.0 29.0 0.00 0.00 0.00 28 1005.7
20260503201007 21 338 11.3 32.2 0.00 0.00 0.00 29 1005.8
20260503200510 21 272 16.1 33.8 0.00 0.00 0.00 28 1005.8
20260503200026 21 308 20.9 32.2 0.00 0.00 0.00 27 1005.9
20260503195510 21 280 12.9 24.1 0.00 0.00 0.00 30 1006.0
20260503195009 21 307 12.9 22.5 0.00 0.00 0.00 31 1006.0
20260503194527 21 257 14.5 22.5 0.00 0.00 0.00 31 1006.0
20260503194005 21 276 12.9 27.4 0.00 0.00 0.00 32 1006.1
20260503193507 21 352 16.1 27.4 0.00 0.00 0.00 33 1006.0
20260503193018 21 302 9.7 24.1 0.00 0.00 0.00 32 1006.0
20260503192507 21 286 16.1 25.7 0.00 0.00 0.00 35 1006.1
20260503192012 21 288 14.5 25.7 0.00 0.00 0.00 31 1006.0
20260503191522 21 296 17.7 29.0 0.00 0.00 0.00 32 1005.9
20260503191010 21 311 19.3 29.0 0.00 0.00 0.00 32 1006.0
20260503190507 21 337 9.7 22.5 0.00 0.00 0.00 34 1006.0
20260503190037 21 298 6.4 30.6 0.00 0.00 0.00 36 1006.1
20260503185508 21 286 22.5 30.6 0.00 0.00 0.00 35 1006.1
20260503185011 21 313 19.3 25.7 0.00 0.00 0.00 34 1006.0
20260503184520 21 344 12.9 29.0 0.00 0.00 0.00 37 1006.2
20260503184009 20 335 9.7 29.0 0.00 0.00 0.00 34 1006.2
20260503183512 20 297 8.0 27.4 0.00 0.00 0.00 33 1006.2
20260503183034 21 344 14.5 24.1 0.00 0.00 0.00 37 1006.2
20260503182511 21 327 14.5 25.7 0.00 0.00 0.00 35 1006.2
20260503182009 21 317 16.1 25.7 0.00 0.00 0.00 39 1006.3
20260503181537 20 273 17.7 29.0 0.00 0.00 0.00 37 1006.3
20260503181009 20 283 16.1 29.0 0.00 0.00 0.00 40 1006.4
20260503180507 20 352 8.0 29.0 0.00 0.00 0.00 35 1006.4
20260503180039 20 22 8.0 29.0 0.00 0.00 0.00 37 1006.5
20260503175516 20 325 16.1 25.7 0.00 0.00 0.00 38 1006.4
20260503175007 20 269 6.4 24.1 0.00 0.00 0.00 38 1006.4
20260503174525 20 343 11.3 27.4 0.00 0.00 0.00 37 1006.6
20260503174011 20 323 11.3 27.4 0.00 0.00 0.00 38 1006.5
20260503173508 20 282 9.7 24.1 0.00 0.00 0.00 38 1006.5
20260503173026 20 346 11.3 38.6 0.00 0.00 0.00 37 1006.6
20260503172512 20 311 16.1 38.6 0.00 0.00 0.00 37 1006.6
20260503172010 20 321 16.1 22.5 0.00 0.00 0.00 36 1006.8
20260503171526 20 306 17.7 24.1 0.00 0.00 0.00 37 1006.7
20260503171008 19 350 9.7 25.7 0.00 0.00 0.00 38 1006.7
20260503170509 18 315 11.3 29.0 0.00 0.00 0.00 38 1006.7
20260503151002 16 316 9.7 19.3 0.00 0.00 0.00 44 1006.2
20260503131005 12 221 6.4 12.9 0.00 0.00 0.00 56 1005.8
20260503110516 9 203 3.2 8.0 0.00 0.00 0.00 59 1004.9
20260503090507 13 244 3.2 22.5 0.00 0.00 0.00 48 1005.7
20260503081515 12 192 6.4 11.3 0.00 0.00 0.00 56 1006.0
20260503081009 12 199 4.8 11.3 0.00 0.00 0.00 56 1006.1
20260503072508 12 189 3.2 12.9 0.00 0.00 0.00 57 1006.9
20260503072008 12 215 3.2 14.5 0.00 0.00 0.00 58 1006.9
20260503071512 11 194 8.0 14.5 0.00 0.00 0.00 60 1007.0
20260503071007 12 211 8.0 20.9 0.00 0.00 0.00 61 1007.0
20260503070508 12 234 8.0 20.9 0.00 0.00 0.00 61 1007.0